GFSFLT1_850_rhum_210.txt.gz
RH
14 14 15 15 15 15 19 29 58 75 78 70 65 60 60 63 68 69 80 98 90 87 97 99 94 80 54 36 41 60 55 72
32 26 16 16 14 14 13 21 53 78 60 57 63 56 61 61 73 89 75 94 92 100 88 96 97 89 78 51 46 56 78 83
42 46 50 30 33 37 48 70 67 54 53 54 56 62 68 78 90 98 92 99 87 88 87 92 94 92 87 66 55 72 82 84
42 43 43 68 93 100 99 100 83 58 57 58 62 71 84 98 97 99 100 100 100 90 97 90 98 98 95 80 61 62 74 85
18 20 23 33 42 45 44 49 80 88 94 75 67 67 72 88 100 98 99 100 100 96 89 99 99 92 100 77 69 68 67 75
18 18 19 19 20 20 20 24 37 49 73 95 100 93 78 100 100 100 99 91 100 100 83 100 100 100 99 86 74 79 79 76
24 24 23 20 20 21 22 23 18 18 24 35 60 98 97 93 97 97 94 97 100 100 99 100 98 100 96 85 85 82 82 82
30 30 26 24 23 26 23 26 24 18 20 25 29 34 52 96 97 87 80 77 99 97 98 100 98 87 94 93 89 85 85 82
30 34 39 34 30 30 29 34 34 33 38 38 36 38 34 34 46 82 92 85 67 81 99 100 100 96 98 100 90 83 84 86
38 39 43 46 46 46 48 49 45 46 50 46 38 42 40 41 42 48 56 90 98 76 87 92 100 100 98 91 93 98 88 83
43 46 52 48 50 49 44 42 44 48 54 53 53 50 48 43 48 63 62 62 86 100 91 93 98 100 100 100 100 95 94 95
54 53 49 46 43 47 45 55 64 64 60 57 53 50 51 54 53 56 71 70 71 85 97 98 96 89 96 99 99 99 90 92
47 49 50 50 43 56 49 51 50 71 66 56 59 57 55 59 64 63 62 59 59 66 77 99 99 100 100 99 100 100 100 93
51 63 74 76 74 61 56 48 58 71 69 73 60 62 65 65 70 76 70 67 65 69 68 78 100 97 99 100 98 100 98 100
80 81 85 78 62 60 46 38 36 48 42 76 83 68 80 85 87 89 88 83 80 74 87 97 96 98 100 100 100 100 100 99
98 92 99 81 72 64 55 55 47 44 46 57 70 89 88 85 84 78 85 99 86 84 97 100 97 99 100 100 100 100 100 100
100 98 96 86 65 62 61 60 46 50 54 62 70 91 92 90 98 100 95 97 100 100 98 98 100 100 100 100 97 100 100 100
99 98 96 62 67 69 60 60 47 48 48 56 70 89 88 76 90 97 100 99 100 100 100 100 100 100 100 95 100 94 100 100
94 77 64 61 56 58 65 60 49 53 55 64 74 84 75 83 96 99 99 100 100 100 100 100 99 100 99 100 100 100 100 100

GFSFLT1_850_rhum_216.txt.gz
RH
49 58 56 46 31 23 29 54 79 88 95 95 99 97 87 73 71 69 67 68 68 74 82 96 86 99 97 95 80 64 49 74
27 33 48 63 66 56 44 94 100 100 99 100 100 97 97 74 67 67 65 69 68 72 79 86 77 100 81 75 89 96 100 100
21 21 22 23 28 58 91 99 98 99 100 100 100 99 100 90 88 75 82 80 98 97 83 99 99 100 80 94 99 91 98 98
28 23 23 24 24 24 26 36 52 92 99 98 100 100 100 99 100 95 85 99 100 100 99 100 100 99 99 81 82 89 99 99
34 36 32 30 28 25 24 26 28 31 36 51 72 81 84 99 99 99 99 100 100 94 98 99 98 100 100 98 100 100 91 97
32 28 29 30 35 36 28 29 30 32 33 31 33 38 36 36 39 46 62 97 98 100 92 100 98 100 99 100 100 100 100 98
34 33 31 28 25 25 28 37 45 44 41 38 38 42 45 41 40 40 37 34 73 97 100 97 100 98 98 97 92 98 85 99
40 37 29 28 29 28 28 28 32 42 46 43 39 40 37 48 46 42 35 36 36 50 96 99 99 98 100 100 97 97 96 94
40 40 38 32 26 25 31 27 23 25 42 41 39 42 44 44 44 48 44 50 42 38 64 59 58 85 99 100 98 98 100 100
34 32 34 34 38 33 30 34 22 21 33 47 43 49 54 57 62 62 60 56 46 43 47 65 61 64 92 99 100 99 100 98
44 44 53 68 73 71 79 68 54 49 55 49 47 54 58 60 62 64 72 70 61 63 59 67 78 74 78 99 100 100 100 100
86 82 78 90 77 68 81 80 70 62 58 46 40 37 41 47 60 60 67 94 86 73 65 69 75 81 76 83 82 100 100 100
78 82 88 93 81 60 76 83 65 58 53 44 39 40 40 42 52 68 64 70 95 100 98 87 86 83 82 81 73 83 93 100
89 92 96 99 98 96 83 84 70 67 64 45 40 39 37 39 44 52 65 75 78 87 98 100 99 97 86 82 85 100 98 98
99 100 100 100 94 98 98 81 81 69 70 53 48 46 50 53 55 57 63 70 82 86 82 98 100 100 95 86 73 95 100 99
90 100 100 99 95 99 96 89 90 75 76 58 51 44 48 58 62 67 71 71 73 77 83 88 92 100 100 96 83 94 100 100
99 95 100 96 99 99 98 83 82 78 75 63 50 48 52 60 65 71 77 82 83 77 75 89 91 98 95 100 100 97 92 99
100 100 92 99 100 100 97 71 75 82 74 68 56 58 58 63 67 71 77 83 84 95 100 100 94 98 94 89 97 98 97 99
94 84 92 99 100 100 89 75 87 84 75 72 70 70 67 67 71 75 79 81 81 92 100 98 98 98 100 99 94 98 100 98

GFSFLT1_850_rhum_222.txt.gz
RH
33 36 38 38 50 77 82 88 81 91 96 95 98 99 99 100 100 99 99 91 71 86 100 100 99 98 100 100 98 97 96 98
38 40 41 40 37 41 64 78 63 78 88 90 99 100 98 95 98 99 100 97 100 99 100 99 99 98 95 100 100 99 100 99
34 36 40 42 45 45 52 58 78 83 69 49 62 94 100 100 100 100 99 98 99 99 100 99 99 100 100 100 100 99 100 95
32 31 34 35 41 45 44 40 45 48 55 84 51 44 54 91 100 100 100 100 100 100 100 100 100 100 99 99 99 98 98 92
31 34 36 37 41 45 46 45 41 40 30 40 49 87 56 44 46 66 90 98 100 100 100 99 100 99 100 100 100 99 99 90
36 38 39 39 41 44 41 35 42 38 35 27 32 45 70 52 47 44 43 55 71 80 100 99 100 100 100 100 99 100 100 99
39 40 41 42 44 48 34 27 25 32 35 36 28 24 40 51 47 49 53 54 56 67 64 74 93 100 99 100 100 100 100 98
41 40 41 42 45 50 55 57 58 59 63 73 75 71 59 35 44 64 82 54 55 54 58 64 78 73 91 99 98 98 100 98
41 39 41 45 50 54 60 64 70 71 74 74 82 79 80 84 48 44 56 89 91 80 66 74 48 67 77 91 98 100 100 100
38 39 44 51 52 57 68 73 77 82 85 87 94 92 94 94 75 57 52 54 67 72 79 65 65 90 86 88 82 78 97 99
38 43 50 52 57 65 70 79 81 86 94 95 100 94 97 98 84 61 60 82 73 82 94 78 81 87 68 74 87 84 82 97
44 45 47 55 61 66 83 91 97 100 95 98 99 97 96 60 54 66 58 54 53 70 67 84 97 92 76 83 96 97 86 91
42 46 49 53 63 70 89 94 98 99 98 99 100 94 63 59 54 50 52 56 55 48 49 63 83 98 98 89 92 99 91 85
43 46 52 61 62 74 81 91 98 98 98 100 99 92 67 54 53 52 49 50 50 52 56 59 68 81 98 99 98 96 100 94
42 43 52 54 61 74 88 99 100 98 100 100 98 79 62 57 54 51 48 55 58 59 60 62 64 64 74 94 100 100 98 100
45 52 54 64 73 92 98 98 99 100 100 100 99 78 70 62 54 51 56 58 66 69 90 92 74 67 72 80 89 99 100 94
54 57 65 88 92 97 95 98 100 100 100 100 93 82 77 72 66 64 65 65 65 67 68 68 73 62 60 60 66 87 98 99
56 56 84 93 96 100 99 99 99 99 100 99 90 88 84 81 78 75 74 74 72 70 65 61 57 55 56 62 69 70 82 99
63 80 95 96 99 97 100 99 98 98 98 100 93 87 83 81 78 78 81 80 77 74 70 68 65 61 66 74 80 89 95 95

GFSFLT1_850_rhum_228.txt.gz
RH
35 38 42 43 46 45 45 45 43 50 61 75 69 74 87 95 98 99 97 94 95 93 91 98 96 94 96 98 100 99 94 97
31 34 36 39 44 46 46 48 48 46 39 38 42 52 48 57 68 85 85 89 86 90 99 97 100 100 99 99 99 97 99 100
28 32 36 38 42 44 45 48 46 46 48 48 44 42 34 38 44 50 51 59 82 80 99 98 96 99 99 99 99 100 100 100
29 32 36 37 40 44 49 52 52 47 43 40 39 36 34 51 52 48 43 35 35 66 99 100 98 100 100 99 98 100 100 100
30 34 36 37 38 41 46 42 37 39 32 29 30 41 51 52 59 57 66 61 45 29 41 69 97 100 100 99 100 100 100 100
34 35 36 35 37 43 48 46 48 46 49 49 54 56 56 58 60 74 68 70 73 72 53 39 43 51 92 100 99 94 99 100
37 37 35 35 38 40 43 45 49 49 51 57 62 64 66 68 72 73 68 68 71 71 73 72 63 53 53 62 82 100 100 94
38 36 34 36 37 39 40 44 50 51 55 58 56 66 74 73 70 79 78 73 81 79 78 85 89 81 67 52 50 68 96 100
35 34 35 35 35 36 39 44 51 52 57 63 70 68 75 83 79 79 74 84 83 75 82 81 81 91 91 78 79 69 64 83
34 35 36 36 35 36 41 43 45 57 60 65 56 77 83 84 71 78 82 82 85 81 78 88 82 90 95 95 79 92 73 74
33 34 32 32 33 35 38 46 57 65 66 60 62 77 94 95 86 95 96 93 90 81 72 77 85 89 83 92 87 78 99 96
30 30 29 28 32 36 42 54 61 60 51 64 89 98 99 99 98 99 99 91 64 56 66 64 81 76 55 58 58 75 83 94
28 26 25 29 33 36 50 57 58 42 73 95 95 98 98 99 98 88 84 57 48 50 54 64 68 62 53 52 47 55 71 84
23 24 26 31 36 50 63 74 78 71 80 98 99 100 100 99 88 77 70 63 60 59 56 63 70 62 62 68 70 68 77 96
22 28 32 37 44 63 74 78 78 84 90 99 99 98 97 92 92 79 92 85 76 73 72 71 64 69 86 99 98 98 100 81
30 38 40 41 55 68 77 76 86 95 91 100 95 97 99 98 98 99 99 99 95 71 68 68 74 80 97 94 88 82 76 83
39 40 41 51 70 80 68 77 87 96 94 97 96 91 88 97 99 95 98 93 92 84 77 73 71 70 73 70 61 63 57 53
47 50 54 65 77 85 80 82 86 96 100 100 98 91 84 96 98 100 99 96 96 99 100 96 77 69 65 61 59 56 53 51
55 61 68 73 76 86 85 82 84 97 99 98 89 79 76 86 90 89 94 93 97 100 99 95 99 96 80 71 65 61 58 57